TimeCDT,TemperatureF,Dew PointF,Humidity,Sea Level PressureIn,VisibilityMPH,Wind Direction,Wind SpeedMPH,Gust SpeedMPH,PrecipitationIn,Events,Conditions,WindDirDegrees,DateUTC
12:15 AM,67.1,61.9,83,29.97,10.0,ESE,4.6,-,N/A,,Clear,120,2013-05-18 05:15:00
12:35 AM,66.2,61.7,85,29.98,10.0,ESE,3.5,-,N/A,,Scattered Clouds,110,2013-05-18 05:35:00
12:55 AM,65.8,61.7,86,29.97,10.0,SE,3.5,-,N/A,,Scattered Clouds,130,2013-05-18 05:55:00
1:15 AM,65.3,61.7,88,29.97,10.0,SE,3.5,-,N/A,,Clear,140,2013-05-18 06:15:00
1:35 AM,64.8,61.7,90,29.98,10.0,Calm,Calm,-,N/A,,Clear,0,2013-05-18 06:35:00
1:55 AM,64.8,61.9,90,29.98,10.0,Calm,Calm,-,N/A,,Scattered Clouds,0,2013-05-18 06:55:00
2:15 AM,64.6,61.9,91,29.98,10.0,Calm,Calm,-,N/A,,Scattered Clouds,0,2013-05-18 07:15:00
2:35 AM,64.6,61.9,91,29.98,7.0,Calm,Calm,-,N/A,,Mostly Cloudy,0,2013-05-18 07:35:00
2:55 AM,64.2,61.9,92,29.98,7.0,Calm,Calm,-,N/A,,Overcast,0,2013-05-18 07:55:00
3:15 AM,64.4,62.4,93,29.99,7.0,Calm,Calm,-,N/A,,Mostly Cloudy,0,2013-05-18 08:15:00
3:35 AM,64.4,62.2,93,29.99,7.0,Calm,Calm,-,N/A,,Mostly Cloudy,0,2013-05-18 08:35:00
3:55 AM,63.9,62.1,94,29.99,5.0,Calm,Calm,-,N/A,,Scattered Clouds,0,2013-05-18 08:55:00
4:15 AM,63.9,62.4,95,29.99,5.0,Calm,Calm,-,N/A,,Mostly Cloudy,0,2013-05-18 09:15:00
4:35 AM,63.5,61.9,94,29.99,5.0,SE,3.5,-,N/A,,Mostly Cloudy,130,2013-05-18 09:35:00
4:55 AM,63.5,62.1,95,29.99,4.0,East,3.5,-,N/A,,Scattered Clouds,90,2013-05-18 09:55:00
5:15 AM,63.1,61.9,96,29.99,4.0,East,3.5,-,N/A,,Clear,90,2013-05-18 10:15:00
5:35 AM,62.8,61.7,96,29.99,1.8,East,3.5,-,N/A,,Mist,100,2013-05-18 10:35:00
5:55 AM,62.8,61.7,96,29.99,1.5,ESE,4.6,-,N/A,,Mostly Cloudy,110,2013-05-18 10:55:00
6:15 AM,62.8,61.9,97,29.99,1.5,East,5.8,-,N/A,,Scattered Clouds,100,2013-05-18 11:15:00
6:35 AM,63.5,62.2,96,29.99,2.0,ESE,4.6,-,N/A,,Clear,110,2013-05-18 11:35:00
6:55 AM,64.0,62.6,95,30.00,2.5,ESE,5.8,-,N/A,,Clear,110,2013-05-18 11:55:00
7:15 AM,65.3,62.8,92,30.00,3.0,ESE,5.8,-,N/A,,Scattered Clouds,110,2013-05-18 12:15:00
7:35 AM,66.2,63.1,90,30.01,4.0,ESE,5.8,-,N/A,,Scattered Clouds,110,2013-05-18 12:35:00
7:55 AM,67.3,63.0,86,30.01,5.0,SE,4.6,-,N/A,,Scattered Clouds,130,2013-05-18 12:55:00
8:15 AM,68.5,63.1,83,30.01,7.0,SE,6.9,-,N/A,,Scattered Clouds,130,2013-05-18 13:15:00
8:35 AM,69.4,63.3,81,30.01,7.0,SE,4.6,-,N/A,,Clear,130,2013-05-18 13:35:00
8:55 AM,71.1,64.2,79,30.01,7.0,SSE,5.8,-,N/A,,Clear,150,2013-05-18 13:55:00
9:15 AM,72.3,64.2,76,30.02,7.0,SSE,6.9,-,N/A,,Clear,150,2013-05-18 14:15:00
9:35 AM,73.6,63.5,71,30.01,7.0,SSE,8.1,-,N/A,,Scattered Clouds,160,2013-05-18 14:35:00
9:55 AM,74.3,63.3,68,30.01,10.0,SE,8.1,-,N/A,,Mostly Cloudy,130,2013-05-18 14:55:00
10:15 AM,75.2,63.9,68,30.00,10.0,SE,6.9,-,N/A,,Scattered Clouds,130,2013-05-18 15:15:00
10:35 AM,75.9,63.1,64,30.00,10.0,ESE,8.1,-,N/A,,Mostly Cloudy,120,2013-05-18 15:35:00
10:55 AM,74.7,61.9,64,30.00,10.0,SSE,8.1,-,N/A,,Overcast,160,2013-05-18 15:55:00
11:15 AM,74.5,62.2,66,30.01,10.0,South,6.9,-,N/A,,Overcast,170,2013-05-18 16:15:00
11:35 AM,74.5,62.6,66,30.01,10.0,SSE,6.9,-,N/A,,Overcast,160,2013-05-18 16:35:00
11:55 AM,75.2,61.5,62,30.00,10.0,SE,5.8,-,N/A,,Overcast,130,2013-05-18 16:55:00
12:15 PM,77.0,61.2,58,29.99,10.0,SSE,8.1,-,N/A,,Overcast,150,2013-05-18 17:15:00
12:35 PM,78.8,62.1,56,29.99,10.0,ESE,5.8,-,N/A,,Mostly Cloudy,120,2013-05-18 17:35:00
12:55 PM,78.6,60.3,53,29.97,10.0,SE,6.9,-,N/A,,Scattered Clouds,140,2013-05-18 17:55:00
1:15 PM,78.8,61.0,54,29.97,10.0,SE,6.9,-,N/A,,Clear,140,2013-05-18 18:15:00
1:35 PM,78.6,61.0,55,29.96,10.0,ESE,4.6,-,N/A,,Scattered Clouds,110,2013-05-18 18:35:00
1:55 PM,80.6,60.8,51,29.96,10.0,SE,9.2,-,N/A,,Scattered Clouds,130,2013-05-18 18:55:00
2:15 PM,78.4,60.4,54,29.95,10.0,East,12.7,17.3,N/A,,Scattered Clouds,100,2013-05-18 19:15:00
2:35 PM,81.5,61.7,51,29.95,10.0,SE,8.1,-,N/A,,Mostly Cloudy,140,2013-05-18 19:35:00
2:55 PM,81.0,60.3,49,29.95,10.0,SE,8.1,-,N/A,,Overcast,130,2013-05-18 19:55:00
3:15 PM,79.2,59.7,51,29.95,10.0,SSE,5.8,-,N/A,,Mostly Cloudy,150,2013-05-18 20:15:00
3:35 PM,78.8,59.5,52,29.95,10.0,SE,6.9,-,N/A,,Mostly Cloudy,130,2013-05-18 20:35:00
3:55 PM,79.7,59.5,50,29.94,10.0,ESE,5.8,-,N/A,,Overcast,120,2013-05-18 20:55:00
4:15 PM,79.2,59.0,50,29.94,10.0,ESE,8.1,-,N/A,,Overcast,120,2013-05-18 21:15:00
4:35 PM,78.8,58.6,50,29.94,10.0,SE,5.8,16.1,N/A,,Overcast,140,2013-05-18 21:35:00
4:55 PM,79.5,58.8,49,29.93,10.0,ESE,10.4,-,N/A,,Mostly Cloudy,110,2013-05-18 21:55:00
5:15 PM,80.8,58.5,46,29.93,10.0,SE,9.2,-,N/A,,Mostly Cloudy,130,2013-05-18 22:15:00
5:35 PM,79.7,58.6,48,29.93,10.0,SE,10.4,-,N/A,,Scattered Clouds,140,2013-05-18 22:35:00
5:55 PM,79.2,59.2,50,29.92,10.0,SSE,9.2,-,N/A,,Scattered Clouds,150,2013-05-18 22:55:00
6:15 PM,79.3,58.6,49,29.92,10.0,SSE,9.2,-,N/A,,Clear,160,2013-05-18 23:15:00
6:35 PM,78.8,58.1,49,29.91,10.0,SE,5.8,-,N/A,,Clear,140,2013-05-18 23:35:00
6:55 PM,78.4,58.6,50,29.91,10.0,SSE,5.8,-,N/A,,Clear,150,2013-05-18 23:55:00
7:15 PM,77.9,58.3,51,29.92,10.0,SE,8.1,-,N/A,,Clear,140,2013-05-19 00:15:00
7:35 PM,77.4,58.6,52,29.92,10.0,SE,4.6,-,N/A,,Clear,140,2013-05-19 00:35:00
7:55 PM,76.3,59.0,55,29.92,10.0,SE,4.6,-,N/A,,Clear,140,2013-05-19 00:55:00
8:15 PM,75.0,59.0,57,29.91,10.0,SE,4.6,-,N/A,,Clear,140,2013-05-19 01:15:00
8:35 PM,73.9,59.2,60,29.91,10.0,SE,4.6,-,N/A,,Clear,140,2013-05-19 01:35:00
8:55 PM,73.0,59.2,62,29.91,10.0,SE,3.5,-,N/A,,Clear,140,2013-05-19 01:55:00
9:15 PM,71.8,59.2,64,29.91,10.0,SE,3.5,-,N/A,,Clear,140,2013-05-19 02:15:00
9:35 PM,70.9,59.2,66,29.91,10.0,SE,3.5,-,N/A,,Clear,140,2013-05-19 02:35:00
9:55 PM,70.0,59.4,69,29.90,10.0,SE,3.5,-,N/A,,Clear,140,2013-05-19 02:55:00
10:15 PM,69.8,59.5,70,29.90,10.0,ESE,4.6,-,N/A,,Clear,110,2013-05-19 03:15:00
10:35 PM,69.1,59.9,72,29.90,10.0,East,4.6,-,N/A,,Clear,100,2013-05-19 03:35:00
10:55 PM,69.3,59.9,72,29.90,10.0,ESE,3.5,-,N/A,,Scattered Clouds,110,2013-05-19 03:55:00
11:15 PM,68.9,59.9,73,29.90,10.0,ESE,3.5,-,N/A,,Scattered Clouds,120,2013-05-19 04:15:00
11:35 PM,68.2,59.7,74,29.91,10.0,ESE,4.6,-,N/A,,Clear,120,2013-05-19 04:35:00
11:55 PM,68.0,59.9,75,29.90,10.0,ESE,4.6,-,N/A,,Clear,110,2013-05-19 04:55:00